Showing default

COSMOS 1888, 18384

Orbit data source: Space-Track

COSMOS 1888, 18384 is a payload satellite owned by UNKS (CIS) in GEO that was launched on Thu, 01 Oct 1987 UTC via a PROTON-K/DM-2 launch vehicle from the Tyuratam Missile And Space Complex (TTMTR). Payload-class satellites include a variety of spacecraft equipped with specific instruments for various scientific and technological missions. These include communications satellites like Starlink; space stations such as the ISS; scientific satellites like the Hubble; Earth observation satellites from companies like Planet Labs, Umbra, and HawkEye 360; GPS; miniature CubeSats for education and research; and military/defense satellites.

Not visible in the next 10 days
Identifier
18384, 1987-084A
Orbit
GEO
Country
Flag of CISCIS
Related business
Manufacturer
NPOPM/NPOL
Mission
Defense Communications
Bus & Motor
GEIZER, Unknown motor
Mass
2,100 kg wet, ~1,900 kg dry
Launch date (UTC)
1987-10-01 (38 years ago)
Launch vehicle
PROTON-K/DM-2
Launch site
Tyuratam Missile And Space Complex (TTMTR)
Object type
Payload
Rocket body
Debris
Shape & HBR
Cyl + 2 Pan + 1 Plate, 4.5 m
Radar Cross Section
27.853 m², Large (>1 m²)

Expand to show TLE details & history
Last TLE update: 13 hours ago

TLE from 13 hours ago
0 COSMOS 1888
1 18384U 87084A   25258.56924419 -.00000292  00000-0  00000-0 0  9997
2 18384  11.1870 327.8301 0004059 228.4694 145.1291  1.00252027138948
Epoch: 2025-09-15T13:39Z
TLE epoch observation values (Epoch: 2025-09-15T13:39:42.698Z)
Latitude
2.61676°
Longitude
141.51428°
Altitude
35,805.479 km
Speed
3.074 km/s
True Right ascension
22h 44m 51s
True Declination
2° 36' 51"
Sunlit
Object was in daylight at epoch
Visualization orbit readout
Latitude
Unknown
Longitude
Unknown
Altitude
Unknown
Speed
Unknown
Apparent Right ascension
Unknown
Apparent Declination
Unknown
Sunlit
N/A
Visualization observer readout
Local Sidereal Time
19:04:37
Azimuth
Unknown
Elevation
Unknown
Doppler factor
Unknown
Orbital elements
Apogee altitude
35,810.263 km
Perigee altitude
35,776.029 km
Semi-major axis
42,171.283 km
Eccentricity
0.00041
Inclination
11.187°
RAAN
327.8301°
Arg. of periapsis
228.4694°
True anomaly
145.15568°
Mean anomaly
145.1291°
Eccentric anomaly
145.14239°
Mean motion
0.25062 °/min
Orbital period
1,436.43 mins
BSTAR
0
Loading maneuver chart data...
Computing Atmospheric mass density...
Loading historical data...
Loading historical data...
Loading historical data...
Loading historical data...
Loading historical data...
Loading historical data...
Loading historical data...

Documentation

Showing up to 5 results
|